Wind_Speed
52 47 41 33 29 26 24 26 24 25 19 19 20 22 22 22 18 20 21 23 25 27 30 30 31 30 33 36 41 45 41 43
53 45 37 32 30 25 25 23 22 23 21 19 19 20 20 20 18 19 22 21 21 23 27 28 27 31 32 31 36 48 48 48
52 43 40 35 30 25 25 24 24 21 21 18 17 20 20 20 21 22 23 24 25 28 29 29 29 27 28 26 30 35 38 44
52 47 42 34 31 25 27 29 25 22 23 17 17 18 20 23 22 24 27 27 26 25 24 26 22 26 28 31 31 30 30 32
56 47 42 39 36 30 29 23 24 24 20 19 17 17 20 23 26 26 27 29 29 29 28 25 24 26 30 28 25 23 26 27
56 54 54 46 41 33 28 23 24 26 23 20 19 19 20 24 26 29 32 32 31 30 28 30 29 26 26 27 24 19 21 22
61 58 53 46 41 32 29 31 31 31 27 20 20 18 20 23 24 27 29 30 31 34 36 35 29 26 26 26 26 22 21 19
62 59 55 50 44 35 31 36 37 31 27 21 21 21 20 22 23 27 32 34 29 33 38 35 23 20 26 24 23 23 20 20
61 62 59 52 46 40 36 40 39 35 28 24 25 23 23 24 26 27 30 30 28 35 37 31 18 18 22 23 21 22 18 17
66 63 57 53 50 44 40 40 41 36 32 29 29 28 22 18 22 27 30 25 29 32 29 28 28 22 14 16 15 18 14 13
68 62 58 55 51 48 47 45 43 41 38 34 32 31 23 17 20 27 18 15 17 24 25 23 21 16 17 18 10 13 10 8
68 66 61 56 55 56 53 49 45 45 43 39 37 33 31 27 23 26 16 5 9 17 29 27 24 20 19 14 5 8 6 9
68 67 63 60 61 61 57 51 50 49 48 44 39 37 33 30 25 25 15 8 9 18 28 35 37 27 14 5 8 14 23 23
70 68 65 65 64 62 59 57 56 53 50 46 42 41 38 36 27 21 24 20 11 3 11 26 30 41 19 3 19 26 28 22
74 69 68 68 65 64 61 59 59 58 56 52 48 41 40 40 34 33 29 30 24 21 21 11 16 20 25 16 24 21 18 12
73 72 72 70 69 69 65 61 60 60 57 51 49 47 44 40 37 38 36 46 42 41 31 23 2 12 29 27 31 24 18 14
71 74 73 74 73 70 67 62 58 56 54 50 45 45 46 46 41 43 45 49 43 39 29 25 19 40 45 32 39 35 31 27
70 70 72 74 69 67 66 61 53 51 50 50 48 47 46 42 43 45 48 49 48 46 37 27 34 43 42 44 49 42 41 38
70 71 72 69 63 60 58 53 49 51 49 46 44 43 44 46 47 50 49 51 50 53 48 36 37 42 44 50 54 57 65 58
Wind_Direction
245 247 251 254 257 257 257 259 263 266 265 265 265 273 280 286 294 298 293 290 281 276 280 284 284 281 269 264 250 245 245 248
240 244 248 248 249 250 250 252 256 259 260 260 267 276 282 285 293 300 305 306 303 300 293 286 286 288 285 284 262 250 253 250
240 243 243 244 247 244 242 242 243 251 257 264 273 279 285 292 300 308 310 309 309 304 299 289 284 273 279 276 285 277 262 252
237 239 242 243 243 240 235 234 233 239 247 264 271 279 289 296 301 308 308 305 305 302 287 287 291 278 277 289 292 279 272 257
236 238 241 240 239 233 232 238 237 241 252 257 267 273 281 290 298 299 298 299 303 302 301 293 285 280 279 287 285 281 271 261
228 229 232 233 235 233 229 226 228 236 250 254 261 266 276 282 290 299 301 304 303 301 296 293 293 293 296 300 303 295 276 256
231 234 236 237 238 233 227 219 225 233 246 247 252 261 271 281 292 295 296 295 299 302 304 299 293 289 291 301 309 303 288 258
228 233 236 238 239 233 222 226 230 236 242 247 246 255 263 275 276 278 282 293 299 315 321 313 278 288 293 297 302 303 293 262
226 231 232 236 237 235 226 227 234 240 247 250 255 262 270 268 271 277 285 293 306 323 334 332 294 289 294 295 298 301 298 269
222 226 231 234 238 237 235 234 236 241 246 251 255 263 273 268 262 265 274 296 326 348 340 332 323 298 295 283 289 293 294 268
221 223 227 231 238 239 237 236 237 241 246 253 256 264 270 271 261 263 282 339 10 10 7 342 321 298 298 306 298 285 275 248
220 225 222 225 232 236 237 237 239 243 247 253 256 266 274 273 276 269 286 16 15 12 24 17 1 344 322 324 291 253 156 104
222 225 227 226 228 232 236 239 241 244 246 250 254 263 273 273 267 263 254 207 54 34 27 22 15 0 341 355 184 145 117 121
223 226 228 233 232 233 234 238 241 244 249 253 256 262 268 269 261 237 210 222 227 278 339 22 25 5 344 271 145 139 136 127
220 224 228 233 236 238 238 240 242 245 247 249 255 261 266 265 250 236 224 234 238 244 274 17 22 0 333 270 169 163 169 159
223 224 226 231 235 237 239 242 245 248 252 257 261 264 261 253 253 242 234 238 250 254 266 240 68 337 301 218 202 195 212 200
226 226 228 232 234 238 241 244 251 253 254 257 257 255 254 248 254 239 237 244 244 244 242 240 204 178 250 247 211 221 245 265
229 230 232 236 237 241 245 249 250 252 254 256 256 257 260 256 247 230 228 237 229 229 233 221 195 212 232 244 239 241 253 278
231 233 235 237 239 242 244 245 248 252 250 248 252 253 255 252 243 228 229 228 222 236 237 230 216 220 235 253 251 246 260 274
Height
10874 10881 10889 10897 10901 10905 10907 10907 10908 10908 10911 10912 10911 10910 10909 10907 10907 10905 10904 10902 10900 10898 10898 10897 10896 10896 10897 10898 10901 10904 10907 10910
10866 10875 10884 10889 10893 10899 10900 10902 10903 10902 10904 10907 10907 10906 10905 10903 10902 10900 10898 10897 10896 10893 10891 10890 10889 10888 10888 10888 10889 10891 10895 10898
10860 10869 10875 10882 10887 10892 10894 10897 10897 10898 10899 10902 10902 10900 10899 10898 10897 10895 10895 10893 10890 10887 10885 10882 10882 10881 10882 10882 10880 10880 10883 10885
10853 10860 10867 10875 10880 10885 10888 10890 10892 10893 10894 10897 10897 10895 10894 10892 10892 10891 10889 10887 10886 10884 10881 10877 10875 10874 10874 10872 10872 10871 10870 10872
10843 10855 10861 10865 10870 10876 10882 10889 10889 10888 10891 10891 10892 10891 10889 10889 10887 10886 10883 10881 10880 10878 10875 10873 10871 10869 10867 10866 10863 10860 10860 10862
10836 10840 10842 10852 10860 10870 10878 10884 10885 10883 10885 10887 10887 10887 10886 10884 10882 10879 10875 10873 10871 10870 10868 10864 10863 10862 10860 10858 10855 10853 10852 10852
10823 10830 10838 10847 10855 10864 10871 10875 10877 10878 10878 10882 10882 10882 10882 10879 10878 10874 10871 10868 10865 10862 10861 10858 10858 10856 10854 10851 10847 10846 10844 10844
10812 10820 10829 10837 10845 10856 10863 10866 10869 10872 10872 10876 10876 10876 10876 10874 10872 10869 10866 10864 10863 10859 10857 10850 10846 10848 10848 10847 10843 10841 10839 10838
10803 10807 10815 10827 10837 10846 10855 10857 10860 10864 10867 10869 10869 10870 10870 10870 10868 10866 10863 10860 10859 10855 10850 10846 10843 10842 10841 10841 10838 10834 10834 10833
10783 10792 10805 10819 10826 10838 10845 10850 10853 10857 10859 10861 10861 10862 10865 10865 10864 10861 10859 10857 10855 10848 10843 10841 10838 10835 10833 10833 10832 10830 10828 10828
10771 10785 10795 10807 10817 10824 10831 10837 10843 10848 10849 10851 10853 10854 10858 10858 10856 10855 10855 10854 10851 10847 10840 10835 10832 10832 10830 10829 10828 10829 10827 10827
10765 10770 10782 10796 10802 10806 10815 10825 10833 10836 10838 10841 10844 10845 10845 10847 10848 10848 10852 10849 10847 10843 10834 10830 10827 10825 10823 10825 10825 10825 10826 10830
10755 10761 10772 10781 10786 10792 10802 10817 10818 10821 10825 10829 10832 10833 10834 10836 10839 10840 10843 10843 10839 10836 10829 10826 10823 10824 10825 10822 10822 10823 10824 10823
10746 10752 10761 10768 10775 10782 10792 10798 10803 10808 10813 10818 10822 10822 10824 10827 10830 10831 10833 10831 10829 10826 10826 10821 10818 10826 10831 10831 10829 10823 10821 10824
10731 10742 10749 10753 10762 10770 10779 10786 10791 10796 10801 10805 10810 10814 10816 10817 10819 10820 10824 10820 10819 10817 10816 10814 10816 10827 10839 10843 10833 10828 10826 10823
10722 10731 10734 10740 10746 10753 10763 10773 10779 10784 10789 10794 10799 10803 10803 10807 10807 10807 10810 10804 10807 10807 10808 10808 10806 10817 10840 10839 10836 10827 10823 10823
10713 10717 10724 10726 10733 10742 10752 10762 10769 10773 10777 10781 10784 10787 10788 10791 10793 10795 10795 10793 10793 10794 10795 10793 10787 10786 10829 10830 10823 10820 10820 10815
10701 10708 10712 10717 10727 10734 10743 10751 10756 10759 10764 10767 10770 10773 10775 10778 10777 10778 10779 10780 10781 10783 10784 10782 10785 10794 10800 10803 10804 10803 10803 10804
10689 10694 10700 10708 10716 10723 10731 10737 10740 10744 10747 10753 10758 10760 10761 10762 10763 10764 10767 10770 10770 10771 10769 10772 10773 10779 10780 10780 10783 10785 10787 10790